Location: ?????????
(38.0736°N, 23.2119°E)
Time: 04:21:50
(UTC+00:00)

Okean O Rocket - Pass Details

Date: 18 April 2024
Orbit: 619 x 639 km, 98.1° (Epoch: 20 May)

Event Time Altitude Azimuth Distance (km) Brightness Sun altitude
Exits shadow 17:46:56 - 132° (SE) 2,073 3.7 -8.4°
Reaches altitude 10° 17:47:09 10° 130° (SE) 1,991 3.6 -8.5°
Maximum altitude 17:50:54 29° 70° (ENE) 1,142 2.5 -9.1°
Drops below altitude 10° 17:54:42 10° 10° (N) 2,014 4.4 -9.8°
Sets 17:57:07 0° 359° (N) 2,930 5.4 -10.3°
